CZ-6A DEB, 60213

Orbit data source: Space-Track

CZ-6A DEB, 60213 is space debris in SSO originally from a launch on Thu, 04 Jul 2024 UTC launched from the Taiyaun Space Center, China (TSC). Debris objects in space refer to the collection of defunct objects orbiting the Earth. Examples of debris include non-operational satellites, rocket bodies, and fragments generated from explosions, collisions, or faulty payload assembly.

Loading next visibility...
Identifier
60213, 2024-126C
Orbit
SSO
Country
Flag of CNCN / PRC
Related business
Manufacturer
SAST
Mission
Spacecraft
Bus & Motor
Unknown
Mass
~50 kg wet, ~50 kg dry
Launch date (UTC)
2024-07-04 (2 years ago)
Launch vehicle
Unknown
Launch site
Taiyaun Space Center, China (TSC)
Object type
Payload
Rocket body
Debris
Shape & HBR
Cone, 0.3 m
Radar Cross Section
0.159 m², Large (>1 m²)

Expand to show TLE details & history
Last TLE update: 20 hours ago

TLE from 20 hours ago
0 CZ-6A DEB
1 60213U 24126C   26034.50428997  .00016045  00000-0  10685-2 0  9994
2 60213  97.8295  53.0045 0006309  36.3222 323.8432 15.07181800 86580
Epoch: 2026-02-03T12:06Z
TLE epoch observation values (Epoch: 2026-02-03T12:06:10.653Z)
Latitude
-0.00003°
Longitude
97.77584°
Altitude
544.351 km
Speed
7.592 km/s
True Right ascension
03h 32m 01s
True Declination
0° 00' 00"
Sunlit
Object was in daylight at epoch
Visualization orbit readout
Latitude
Unknown
Longitude
Unknown
Altitude
Unknown
Speed
Unknown
Apparent Right ascension
Unknown
Apparent Declination
Unknown
Sunlit
N/A
Visualization observer readout
Local Sidereal Time
10:15:11
Azimuth
Unknown
Elevation
Unknown
Doppler factor
Unknown
Orbital elements
Apogee altitude
546.184 km
Perigee altitude
537.452 km
Semi-major axis
6,919.955 km
Eccentricity
0.00063
Inclination
97.8295°
RAAN
53.0045°
Arg. of periapsis
36.3222°
True anomaly
323.80052°
Mean anomaly
323.8432°
Eccentric anomaly
323.82186°
Mean motion
3.77041 °/min
Orbital period
95.48 mins
BSTAR
0.0010685
Loading maneuver chart data...
Computing Atmospheric mass density...
Loading historical data...
Loading historical data...
Loading historical data...
Loading historical data...
Loading historical data...
Loading historical data...
Loading historical data...
Other satellites on launch #126 in the year 2024 (2024-07-04 UTC)

Documentation

Showing up to 5 results
|